Back to catalog

COSMOS 1758

AliveNavigationPO
NORAD 16791·PAYLOAD·🇷🇺 Russia

Launched Jun 12, 1986 from Plesetsk Cosmodrome

Loading…

Next Passes (next 24 hours)

TLE

FreshSource: Space-Track

Epoch: Sep 14, 2026, 03:37 UTC

1 16791U 86046A   26257.15115719  .00004810  00000-0  17498-3 0  9995
2 16791  82.4590 313.2165 0014074  35.8185 324.3995 15.27899485194828

Track COSMOS 1758 in real time with AllMySat

Download on the App Store